TimeEET,TemperatureF,Dew PointF,Humidity,Sea Level PressureIn,VisibilityMPH,Wind Direction,Wind SpeedMPH,Gust SpeedMPH,PrecipitationIn,Events,Conditions,WindDirDegrees,DateUTC
12:20 AM,57.2,46.4,67,30.04,6.2,South,13.8,-,N/A,,Scattered Clouds,170,2014-01-01 22:20:00
12:50 AM,57.2,46.4,67,30.04,6.2,South,9.2,-,N/A,,Scattered Clouds,180,2014-01-01 22:50:00
1:20 AM,57.2,48.2,72,30.04,6.2,South,11.5,-,N/A,,Mostly Cloudy,180,2014-01-01 23:20:00
1:50 AM,55.4,51.8,88,30.04,6.2,South,12.7,-,N/A,Rain,Light Rain,180,2014-01-01 23:50:00
2:00 AM,55,52,86,30.04,6,South,12.7,,,Rain,Light Rain,180,2014-01-02 00:00:00
2:20 AM,55.4,51.8,88,30.04,5.0,SSW,10.4,-,N/A,Rain,Rain,200,2014-01-02 00:20:00
2:50 AM,55.4,51.8,88,30.01,6.2,South,13.8,-,N/A,,Mostly Cloudy,170,2014-01-02 00:50:00
3:20 AM,55.4,51.8,88,30.01,6.2,Variable,2.3,-,N/A,,Mostly Cloudy,0,2014-01-02 01:20:00
3:50 AM,55.4,51.8,88,30.01,6.2,Variable,5.8,-,N/A,,Mostly Cloudy,0,2014-01-02 01:50:00
4:50 AM,51.8,48.2,88,30.01,6.2,South,8.1,-,N/A,,Scattered Clouds,180,2014-01-02 02:50:00
5:00 AM,53,49,81,30.02,9,South,8.1,,,,Partly Cloudy,180,2014-01-02 03:00:00
5:20 AM,51.8,48.2,88,30.01,6.2,South,8.1,-,N/A,,Scattered Clouds,170,2014-01-02 03:20:00
5:50 AM,51.8,48.2,88,30.01,6.2,South,11.5,-,N/A,,Scattered Clouds,170,2014-01-02 03:50:00
6:20 AM,51.8,48.2,88,30.01,6.2,SSE,10.4,-,N/A,,Mostly Cloudy,160,2014-01-02 04:20:00
6:50 AM,53.6,48.2,82,30.01,6.2,South,6.9,-,N/A,,Mostly Cloudy,180,2014-01-02 04:50:00
7:20 AM,53.6,48.2,82,30.01,6.2,Variable,3.5,-,N/A,,Mostly Cloudy,0,2014-01-02 05:20:00
7:50 AM,53.6,48.2,82,30.04,6.2,South,5.8,-,N/A,,Scattered Clouds,190,2014-01-02 05:50:00
8:00 AM,53,49,80,30.04,9,South,5.8,,,,Partly Cloudy,190,2014-01-02 06:00:00
8:20 AM,53.6,48.2,82,30.04,6.2,South,5.8,-,N/A,,Scattered Clouds,190,2014-01-02 06:20:00
8:50 AM,55.4,50.0,82,30.04,6.2,SSW,4.6,-,N/A,,Scattered Clouds,200,2014-01-02 06:50:00
9:20 AM,59.0,50.0,72,30.04,6.2,SW,9.2,-,N/A,,Scattered Clouds,220,2014-01-02 07:20:00
9:50 AM,60.8,50.0,68,30.04,6.2,WSW,6.9,-,N/A,,Scattered Clouds,240,2014-01-02 07:50:00
10:20 AM,60.8,50.0,68,30.04,6.2,SW,5.8,-,N/A,,Scattered Clouds,230,2014-01-02 08:20:00
10:50 AM,60.8,51.8,72,30.06,6.2,NW,3.5,-,N/A,,Mostly Cloudy,310,2014-01-02 08:50:00
11:00 AM,61,51,61,30.06,9,NW,3.5,,,,Partly Cloudy,310,2014-01-02 09:00:00
11:20 AM,60.8,51.8,72,30.06,6.2,NNW,12.7,-,N/A,,Mostly Cloudy,330,2014-01-02 09:20:00
11:50 AM,59.0,53.6,82,30.06,6.2,NW,12.7,-,N/A,,Mostly Cloudy,310,2014-01-02 09:50:00
12:20 PM,59.0,53.6,82,30.06,6.2,NW,10.4,-,N/A,,Mostly Cloudy,320,2014-01-02 10:20:00
12:50 PM,57.2,53.6,88,30.04,6.2,WNW,11.5,-,N/A,Rain,Light Rain,300,2014-01-02 10:50:00
1:20 PM,57.2,53.6,88,30.04,6.2,WNW,8.1,-,N/A,Rain,Light Rain,290,2014-01-02 11:20:00
1:50 PM,59.0,55.4,88,30.04,6.2,NW,8.1,-,N/A,,Mostly Cloudy,310,2014-01-02 11:50:00
2:00 PM,58,56,90,30.05,9,NW,8.1,,,Rain,Light Rain,310,2014-01-02 12:00:00
2:20 PM,59.0,55.4,88,30.04,6.2,WNW,11.5,-,N/A,Rain,Light Rain,290,2014-01-02 12:20:00
2:50 PM,57.2,53.6,88,30.04,6.2,NW,6.9,-,N/A,Rain,Light Rain,310,2014-01-02 12:50:00
3:20 PM,57.2,53.6,88,30.04,6.2,Variable,3.5,-,N/A,,Mostly Cloudy,0,2014-01-02 13:20:00
3:50 PM,57.2,53.6,88,30.04,6.2,Variable,1.2,-,N/A,Rain,Light Rain,0,2014-01-02 13:50:00
4:20 PM,57.2,53.6,88,30.04,6.2,Variable,4.6,-,N/A,Rain,Light Rain,0,2014-01-02 14:20:00
4:50 PM,57.2,51.8,82,30.04,6.2,WSW,10.4,-,N/A,Rain,Light Rain,250,2014-01-02 14:50:00
5:00 PM,57,53,80,30.05,9,WSW,10.4,,,Rain,Light Rain,250,2014-01-02 15:00:00
5:20 PM,57.2,51.8,82,30.04,6.2,North,8.1,-,N/A,Rain,Light Rain,350,2014-01-02 15:20:00
5:50 PM,57.2,51.8,82,30.06,6.2,WSW,8.1,-,N/A,Rain,Light Rain,250,2014-01-02 15:50:00
6:20 PM,57.2,51.8,82,30.04,6.2,North,8.1,-,N/A,Rain,Light Rain,350,2014-01-02 16:20:00
6:50 PM,57.2,51.8,82,30.06,6.2,North,10.4,-,N/A,,Mostly Cloudy,360,2014-01-02 16:50:00
7:20 PM,57.2,51.8,82,30.06,6.2,North,8.1,-,N/A,,Mostly Cloudy,350,2014-01-02 17:20:00
7:50 PM,57.2,51.8,82,30.09,6.2,NNW,8.1,-,N/A,,Mostly Cloudy,340,2014-01-02 17:50:00
8:00 PM,56,53,84,30.10,9,NNW,8.1,,,,Partly Cloudy,340,2014-01-02 18:00:00
8:20 PM,57.2,51.8,82,30.09,6.2,Variable,3.5,-,N/A,,Mostly Cloudy,0,2014-01-02 18:20:00
8:50 PM,55.4,51.8,88,30.09,6.2,Variable,2.3,-,N/A,,Mostly Cloudy,0,2014-01-02 18:50:00
9:20 PM,55.4,51.8,88,30.09,6.2,Variable,4.6,-,N/A,,Mostly Cloudy,0,2014-01-02 19:20:00
9:50 PM,55.4,50.0,82,30.09,6.2,SW,8.1,-,N/A,Rain,Light Rain,220,2014-01-02 19:50:00
10:20 PM,55.4,50.0,82,30.09,5.0,SW,4.6,-,N/A,Rain,Light Rain,220,2014-01-02 20:20:00
10:50 PM,53.6,51.8,94,30.12,5.0,SW,4.6,-,N/A,Rain,Light Rain,220,2014-01-02 20:50:00
11:00 PM,54,52,92,30.14,5,SW,4.6,,,Rain,Light Rain,220,2014-01-02 21:00:00
11:20 PM,53.6,51.8,94,30.12,6.2,SSW,3.5,-,N/A,Rain,Light Rain,200,2014-01-02 21:20:00
11:50 PM,53.6,51.8,94,30.12,6.2,South,3.5,-,N/A,,Mostly Cloudy,180,2014-01-02 21:50:00